Погода Закаталы

Погода Закаталы : погода сейчас, прогноз погоды и архив. Всё, что Вы хотите узнать о погоде Закаталы!

Поиск расширенной информации на нашем сайте:

Другие новости

Новости СМИ2

Главная страница сайта

Новости сайта

03.07.2017

Напоминаем, что на нашем специализированном сайте Метеоцентр.Азия вы можете получить высокодетализированные автоматические прогнозы погоды по пунктам России, СНГ и мира в авиационном формате (включающие направление и скорость ветра, видимость, явления погоды, количество и форму облачности, нижнюю и верхнюю границу облачности).


Погода Закаталы - сегодня

Время (UTC), дата Ветер
(°,м/с) 
Видим.   Явления Облачность Т
(°С)
Тd
(°С)
f(%) Тe
(°С)
Pmin
(гПа)
dP
(гПа)
Po
(мм)
O2
(г/м3)
Тmin Tmax R s Состояние
почвы
21 16.02.18 340 (С) 4000 м    10/10 600 м 
[Sc]
+5.1 -0.2 69 +5  1033.2  -1.2  730  289           
00 17.02.18 340 (С) 4000 м    10/10 600 м 
[Sc]
+4.8 +0.1 72 +4  1032.6  -0.6  730  289           
03 17.02.18 360 (С) 4000 м    10/10 600 м 
[Sc]
+4.2 -0.3 72 +4  1031.2  -1.5  728  289           
09 17.02.18 050 (СВ) 4000 м    10/10 600 м 
[Sc]
+5.5 -1.2 62 +5  1029.1  -1.3  727  287           
12 17.02.18 230 (ЮЗ) 4000 м    10/10 600 м 
[Sc]
+6.4 -0.4 62 +6  1026  -2.7  725  285           
15 17.02.18 200 (Ю) 4000 м    10/10 600 м 
[Sc]
+5.3 -0.5 66 +5  1025.3  -0.9  724  286           
18 17.02.18 050 (СВ) 2000 м    10/10 600 м 
[Sc]
+5.8 +0.1 67 +6  1025.2  724  286    +7.2       
21 17.02.18 230 (ЮЗ) 2000 м    10/10 600 м 
[Sc]
+6.1 +0.5 67 +6  1024.8  -0.4  724  285           
00 18.02.18 050 (СВ) 2000 м    10/10 600 м 
[Sc]
+6.2 +1.2 70 +6  1021.9  -2.6  722  284           
03 18.02.18 020 (С) 4000 м    9/9 600 м 
[Sc]
+6.1 +1.1 70 +6  1021.4  -0.5  722  284           
06 18.02.18 200 (Ю) 4000 м  слаб. дождь  10/10 600 м 
[Cu med, cong]
+4.6 +1.8 82 +4  1023  1.2  723  286  +5.1         
09 18.02.18 200 (Ю) 4000 м  слаб. дождь  10/10 600 м 
[Cu med, cong]
+4.8 +1.2 77 +4  1019.9  -2.9  721  285           
12 18.02.18 230 (ЮЗ) 2000 м  дождь  10/10 600 м 
[Frnb|Ns]
+4.2 +2.5 89 +4  1018.2  -1.5  719  285           
18 18.02.18 230 (ЮЗ) 2000 м  слаб. дождь  10/10 600 м 
[Cu med, cong]
+2.3 +1 91 +2  1019.8  0.6  720  287    +6.3     
21 18.02.18 270 (З) 2000 м  слаб. снег{дождь}  10/10 600 м 
[Cu med, cong]
+1.1 +0.3 94 1021.4  1.3  721  289           
00 19.02.18 160 (Ю) 2000 м  слаб. снег  10/10 600 м 
[Cu med, cong]
+0.9 -0.2 92 1022  0.6  721  290           
06 19.02.18 230 (ЮЗ) 2000 м  слаб. снег  10/10 600 м 
[Cu med, cong]
+0.5 -0.6 92 1022.9  722  290  +0.6    18     
09 19.02.18 230 (ЮЗ) 2000 м  в посл. час дождь{снег}  10/10 600 м 
[Sc]
+2.1 +0.5 89 +1  1022.6  722  289           
12 19.02.18 140 (ЮВ) 4000 м    10/10 600 м 
[Sc]
+3 +1.4 89 +2  1021.9  -0.4  722  287           
15 19.02.18 110 (В) 4000 м    10/10 600 м 
[Sc]
+3.1 +1.5 89 +3  1022.5  0.5  722  287           
21 19.02.18 200 (Ю) 2000 м    10/10 600 м 
[Sc]
+2.7 +1.7 93 +2  1023.4  -0.2  723  288           
00 20.02.18 230 (ЮЗ) 0200 м  туман  ?/?  
+2.7 +1.4 91 +2  1023.6  0.2  723  288           
03 20.02.18 230 (ЮЗ) 0200 м  туман  ?/?  
+2.5 +1.7 94 +2  1023.7  723  288           
09 20.02.18 200 (Ю) 4000 м    10/10 600 м 
[Sc]
+4.7 +2.2 84 +4  1024.6  0.9  724  286           
12 20.02.18 250 (З) 4000 м    10/10 600 м 
[Sc]
+5.5 +1.2 74 +5  1023.4  -1.1  723  285           
Время (UTC), дата Ветер
(°,м/с) 
Видим.   Явления Облачность Т
(°С)
Тd
(°С)
f(%) Тe
(°С)
Pmin
(гПа)
dP
(гПа)
Po
(мм)
O2
(г/м3)
Тmin Tmax R s Состояние
почвы

Для получения пояснительной информации подведите курсор к названию столбца.

ПОГОДА Закаталы - архив

Всё, что Вы хотите узнать о погоде Закаталы - удобно и подробно!

Выберите нужную дату (начиная с 1 января 2015* года) и нажмите кнопку "Найти".
Будут отображены архивные сводки погоды по пункту Закаталы, начиная с указанной даты.


Отображать данные в формате CSV (для использования в таблицах Excel)


Внимание! Наш архив погоды предназначен исключительно для личного некоммерческого использования в познавательных целях. Если Вам необходимы официальные справки о состоянии погоды (для производственных, юридических, коммерческих и т.п. целей), обращайтесь в органы Росгидромета.

*Примечание: данная дата относится к архиву по метеостанциям СССР (Россия, СНГ, Балтия).
Архив по метеостанциям Зарубежной Европы и Азии (кроме Китая) хранится 10 дней, по другим регионам земного шара (Китай, Африка, Америка, Австралия, Океания) - 1 день.

Закаталы - район местоположения метеостанции


Название, широта, долгота, высота метеостанции:
Закаталы 41.6°ш. 46.6°д. 490 м над ур. моря [Азербайджан]

Дополнительная информация

В oтличие oт бoльшинства пoгoдных сайтoв мы публикуем пoдрoбную метеoинфoрмацию в детальнoм прoфессиoнальнoм фoрмате.

Характеристики температуры и влажнoсти вoздуха измеряются на высoте 2 м в тени вдали oт зданий и деревьев.
Скoрoсть ветра измеряется на высoте 10 м (на урoвне рoста челoвека скoрoсть ветра ниже в 1.5-2 раза). Если метеoстанция нахoдится в гoрoде или в лесу, тo скoрoсть ветра занижена на 2-4 м/с пo сравнению с oткрытым местoм. Скoрoсть ветра над акватoриями крупных рек и oзёр, а также на вершинах хoлмoв на 2-5 м/с выше, чем в oбычных услoвиях.
Атмoсфернoе давление в разных тoчках местнoсти мoжет значительнo oтличаться oт давления на метеoстанции, в зависимoсти oт услoвий рельефа (при пoдъёме на 10 м давление пoнижается примернo на 1 мм рт.ст.).